Theta_e
351 353 356 358 359 359 359 359 359 359 360 359 359 359 359 359 358 358 357 357 358 358 357 356 356 355 356 356 356 356 355 354 353 353 353 352 350 349 349 349 350 350 350 351 352 352 351 352 351 351 350 350 349 346 345 345 344 344 343 343 344 344 344 344 345 344 345 344 344 343 343 342 342 342 344 342 343 343 343 342 340 335 334 337 340
350 352 355 356 357 358 359 359 359 359 359 359 359 359 358 359 358 358 358 358 358 357 356 356 356 356 356 356 356 355 354 354 353 353 354 352 350 349 348 349 349 349 350 350 351 352 351 351 350 349 349 350 349 346 345 345 344 343 342 342 342 343 344 345 345 344 343 342 341 341 341 342 342 341 341 344 345 344 342 340 339 335 335 339 339
352 352 355 356 357 358 358 359 358 359 358 359 359 358 358 358 358 358 358 358 358 357 356 356 356 356 356 356 355 355 354 354 354 354 355 353 351 348 348 349 349 350 351 351 351 352 351 350 349 349 349 349 349 346 346 345 344 342 341 342 342 343 343 344 345 344 343 342 341 341 341 342 341 341 341 342 344 343 342 340 340 339 334 339 338
350 353 354 355 356 357 358 358 359 358 358 358 358 358 358 358 358 356 356 357 356 356 355 355 356 356 356 356 355 355 354 354 354 354 354 354 352 349 349 350 351 350 351 350 351 351 351 350 349 349 349 349 349 347 346 345 344 342 342 342 342 343 344 345 345 343 342 343 342 339 338 336 337 339 340 340 341 342 340 338 338 339 338 338 338
350 353 353 355 355 355 357 358 358 358 358 357 358 358 357 355 356 355 356 357 356 356 356 355 356 356 356 356 355 355 353 353 353 354 353 353 352 350 349 349 350 351 350 350 350 350 350 350 349 349 349 349 349 347 345 345 344 343 342 342 342 342 344 343 344 343 343 344 345 339 334 334 334 340 340 341 341 339 338 338 338 338 338 337 337
349 350 352 354 355 356 356 358 357 357 358 357 356 356 357 356 355 355 354 354 355 355 355 356 356 356 356 356 355 354 353 353 353 353 352 353 353 351 348 348 347 350 350 349 349 350 349 349 349 348 348 348 349 347 345 344 344 342 342 342 342 343 343 345 344 344 344 344 347 342 334 335 336 338 341 342 340 339 339 338 338 338 337 338 337
350 352 352 353 354 355 355 356 357 357 357 357 356 355 355 355 354 354 353 352 352 353 354 355 356 356 356 355 355 354 353 353 353 353 353 353 352 351 349 347 345 346 349 349 348 349 348 348 348 347 348 349 348 346 345 344 343 342 341 342 341 342 342 343 343 340 345 342 339 338 334 336 336 337 341 341 340 340 340 339 338 338 338 337 337
350 350 351 352 353 354 354 355 357 357 357 357 357 355 354 354 353 353 352 352 352 352 354 356 355 356 355 354 354 354 353 352 352 353 353 352 351 350 349 349 348 346 348 349 348 348 348 348 347 347 348 349 348 346 344 343 343 342 341 341 341 341 342 343 343 345 342 339 339 336 334 334 336 338 342 341 341 340 340 339 339 338 338 338 337
349 350 351 352 353 353 353 354 356 357 357 357 356 355 354 354 352 353 353 352 352 353 354 355 355 355 355 354 353 354 353 352 352 352 352 351 350 349 350 350 350 350 350 350 350 350 347 347 347 347 348 349 348 346 345 344 343 342 342 341 341 341 342 342 343 345 342 340 335 334 335 336 337 337 340 342 342 340 339 338 337 339 338 337 337
349 351 352 351 351 350 351 351 352 354 356 357 357 356 354 353 352 352 353 352 352 353 355 355 354 355 354 353 353 353 352 352 353 352 352 352 352 351 351 351 351 351 351 350 349 350 348 348 348 347 348 348 347 346 345 344 343 343 342 341 341 342 342 343 345 347 341 335 338 338 337 342 337 337 339 342 342 341 340 339 338 337 339 338 336
348 348 350 350 349 348 348 349 351 352 353 355 356 355 355 353 352 352 353 353 353 354 355 354 355 354 354 354 353 353 353 353 353 353 352 351 351 351 350 351 350 351 350 350 349 348 348 348 347 347 347 347 346 345 344 344 343 342 342 341 341 341 340 342 343 337 337 335 337 338 341 342 335 336 341 341 341 340 339 338 338 339 338 337 336
347 349 349 349 349 345 347 348 349 350 352 353 355 356 355 353 353 353 353 353 354 354 354 354 354 355 354 354 354 353 353 352 352 352 352 351 350 351 351 350 351 351 350 349 349 348 347 347 347 347 347 346 346 345 344 343 342 342 340 340 342 341 339 342 339 336 333 333 336 335 333 334 335 337 340 340 340 340 339 338 338 337 336 336 335
346 346 348 347 345 344 344 346 347 348 349 350 352 354 355 354 354 353 353 354 354 354 354 354 354 354 353 353 354 353 353 353 353 352 352 351 351 351 351 351 350 349 348 347 347 347 347 347 346 346 346 346 346 344 343 343 342 341 341 340 340 340 338 342 337 337 332 335 336 335 335 335 336 340 341 341 340 340 339 338 337 338 336 336 335
346 346 347 346 346 347 344 345 345 346 347 347 347 349 353 354 354 354 353 353 353 353 353 353 353 353 353 353 353 353 353 353 352 351 351 352 351 351 351 351 349 348 347 347 347 347 347 346 346 346 346 346 345 344 343 342 342 341 340 339 340 340 341 338 339 337 334 335 338 335 335 335 335 341 341 341 341 340 338 338 337 337 336 335 334
345 346 346 346 347 346 346 343 343 344 344 346 347 348 349 351 352 351 351 352 354 353 353 353 352 353 353 352 352 352 352 352 352 351 351 351 351 350 351 350 349 348 348 348 348 347 346 345 345 345 345 345 344 343 342 342 341 341 341 341 339 340 340 333 330 333 334 334 335 335 335 335 341 341 341 341 339 338 337 337 336 336 335 334 334
346 345 345 346 346 346 346 346 343 343 343 345 346 347 348 351 352 352 352 352 352 352 352 352 352 352 352 351 351 351 352 352 351 351 351 351 350 350 350 348 348 348 347 347 347 346 345 345 345 344 345 345 344 343 343 342 341 340 339 339 337 340 340 340 330 333 333 334 335 336 334 336 342 341 340 340 339 337 337 336 335 334 334 334 333
346 346 344 345 346 346 346 346 345 344 343 344 345 346 347 350 351 351 351 351 351 352 352 352 352 352 352 351 350 351 351 351 351 350 350 350 350 350 349 348 347 347 347 346 345 345 345 345 344 344 344 344 344 343 343 342 340 340 340 337 340 339 341 343 330 334 337 335 335 334 333 334 340 340 338 339 338 337 336 336 335 334 333 333 332
341 345 345 344 345 345 347 347 345 348 347 345 344 345 347 348 350 350 350 350 350 350 351 351 351 352 351 350 351 351 351 351 350 350 350 349 349 349 349 348 347 347 345 345 345 345 345 345 344 344 344 344 343 343 342 341 340 340 339 338 338 342 343 342 329 336 334 338 334 335 334 341 341 339 338 338 338 337 336 335 334 333 333 332 332
335 338 341 344 345 345 346 347 349 348 349 350 349 346 347 348 351 351 351 350 350 350 350 350 352 351 351 350 351 351 351 351 350 349 349 347 348 348 348 348 347 346 345 345 345 345 344 344 344 344 344 343 342 342 342 341 341 339 338 338 340 341 342 338 330 334 331 335 334 334 335 341 342 340 339 338 337 336 334 333 333 333 332 332 331
332 334 334 339 341 345 346 347 348 348 350 350 350 349 347 348 351 351 351 351 351 351 350 351 352 352 351 351 350 350 350 349 350 348 348 347 346 345 347 347 347 346 345 345 344 344 344 344 344 344 344 343 342 342 341 341 340 340 339 338 340 341 335 333 333 327 326 335 334 333 339 340 341 339 339 339 336 335 333 333 332 332 332 332 331
324 327 338 335 336 338 342 346 347 348 349 349 350 348 349 348 348 349 350 350 351 351 351 351 351 351 352 350 347 349 350 349 349 346 348 346 345 346 347 347 347 346 345 344 344 343 343 344 344 344 343 343 343 341 341 341 341 341 340 340 340 337 333 334 335 333 331 332 332 335 340 339 337 337 339 339 336 335 333 334 333 332 332 332 331
321 325 324 329 338 336 336 342 346 346 347 349 347 347 348 348 350 350 350 350 350 350 351 350 351 350 350 351 349 348 345 346 348 346 346 346 346 346 347 347 346 346 345 344 343 342 342 342 343 343 343 343 343 340 340 341 342 341 340 340 338 333 333 337 333 333 332 331 333 337 340 339 337 337 338 338 336 334 333 334 333 332 331 331 331
319 322 326 322 327 336 337 338 341 345 346 346 347 347 348 348 348 347 348 349 349 350 348 347 347 345 345 347 347 345 343 343 342 345 344 346 347 347 347 346 346 345 345 345 344 344 343 342 342 342 341 341 341 337 338 338 338 341 341 338 335 334 335 338 335 336 331 331 332 339 340 339 338 337 339 337 337 334 333 334 332 331 330 329 330
321 320 323 327 326 328 326 333 340 343 344 345 346 347 347 346 345 346 347 350 349 346 344 343 342 341 339 342 344 344 346 344 343 341 343 343 346 346 347 347 346 345 344 343 344 344 343 341 340 340 338 336 333 333 335 335 336 337 338 337 334 334 337 336 331 333 331 334 334 340 339 340 339 336 335 334 335 335 333 333 332 331 330 329 330
322 322 326 327 333 332 336 335 334 342 344 345 344 343 345 343 344 344 345 346 346 347 347 346 344 340 339 341 341 343 342 344 341 343 345 344 343 342 345 344 344 343 344 340 341 340 340 336 336 337 333 333 332 333 334 334 335 334 334 334 334 334 337 338 334 333 329 331 335 338 339 339 340 336 336 335 335 335 333 334 332 332 330 328 329
324 319 323 324 324 321 326 331 337 333 343 343 343 343 343 341 342 343 342 343 343 345 345 347 346 347 347 342 340 342 340 340 340 340 340 341 340 340 340 342 342 341 342 338 337 338 337 334 332 332 333 333 333 333 335 335 334 333 333 333 334 336 333 333 332 333 331 332 336 339 339 340 340 336 336 335 335 334 333 333 333 332 330 329 329
320 320 324 322 321 320 320 324 329 334 335 343 343 343 341 339 340 340 340 339 342 342 342 342 345 346 345 341 340 338 339 340 337 338 339 341 341 342 338 339 339 338 339 335 334 336 335 333 332 332 333 334 334 330 333 336 335 334 333 333 333 335 332 336 335 334 330 331 336 339 338 340 339 337 336 336 334 334 334 334 334 331 329 329 327
320 323 322 327 331 319 321 322 328 333 334 338 340 340 338 339 340 340 337 337 339 339 342 341 340 343 339 340 342 341 338 337 337 337 340 339 339 340 343 336 336 337 337 335 334 333 334 334 333 332 333 333 333 329 327 330 333 336 334 333 333 335 331 331 335 331 331 331 334 338 338 339 338 339 336 335 335 334 334 334 334 332 330 328 328
321 323 323 321 318 321 321 324 327 330 330 339 339 334 335 337 338 336 337 337 338 338 336 340 342 342 339 338 341 339 338 338 337 338 340 339 339 341 340 340 336 336 336 333 336 334 333 334 334 333 332 331 331 332 328 330 331 335 334 333 333 332 335 331 336 333 333 330 331 337 339 338 338 338 337 335 335 333 335 335 335 332 330 331 330
321 324 325 326 324 319 320 323 329 326 331 332 332 334 335 332 332 334 335 337 333 335 335 336 339 340 338 341 340 341 339 339 338 339 339 337 340 340 338 340 339 336 335 333 337 337 337 335 337 336 331 332 329 332 333 329 328 330 331 333 336 335 335 333 333 332 331 333 331 334 339 337 337 338 337 336 335 334 335 335 334 333 331 330 331
323 322 321 320 329 319 322 322 325 330 329 325 331 332 333 330 332 332 333 331 332 333 332 334 335 335 338 340 341 340 338 339 338 338 338 339 339 339 337 340 339 343 343 339 340 337 337 340 335 335 334 332 331 330 330 332 330 328 329 330 332 333 333 333 333 333 331 335 332 332 335 338 337 335 336 337 338 336 334 335 335 333 332 330 330
321 322 321 325 326 324 321 325 325 331 329 322 333 330 331 330 330 336 331 329 334 330 331 333 337 337 336 340 339 340 339 339 338 339 338 338 337 339 340 340 341 341 340 339 338 337 335 335 335 336 338 336 337 331 332 330 329 326 328 328 331 333 333 334 332 332 333 335 334 331 333 335 337 334 335 335 336 335 336 335 336 334 331 331 328
321 324 322 324 325 326 326 325 325 330 327 326 329 329 333 325 334 330 330 334 335 331 329 329 335 337 338 338 340 340 340 338 337 336 338 337 338 340 341 341 341 340 340 339 340 336 335 335 336 338 335 338 338 332 330 329 330 330 327 327 329 331 332 333 335 334 332 334 336 335 333 334 334 334 333 335 335 335 337 336 336 335 332 331 330
318 320 324 324 325 327 325 327 326 323 327 326 327 325 329 330 328 328 331 331 336 333 333 331 330 331 334 336 338 335 340 339 338 336 337 337 339 338 340 340 341 340 340 339 339 339 335 335 334 334 337 336 333 335 332 327 326 327 326 328 329 331 333 333 333 332 335 334 333 336 335 335 333 331 332 337 334 335 335 336 336 336 334 332 330
320 322 322 322 325 324 326 323 326 325 325 326 327 327 328 322 320 326 328 331 336 335 336 334 330 331 330 335 333 334 335 338 338 338 338 338 337 339 339 341 340 340 341 340 342 339 336 335 335 335 337 333 331 329 331 330 330 327 327 328 329 334 333 333 334 335 333 334 335 332 336 336 334 332 332 330 335 335 334 336 337 337 336 333 331
321 321 321 322 321 324 325 324 326 327 327 329 331 331 330 330 327 328 332 332 332 329 334 331 334 333 334 333 337 336 336 338 340 340 339 339 339 339 340 341 340 340 340 339 338 337 338 337 335 338 335 330 330 327 327 327 327 326 327 331 328 331 334 333 333 333 332 332 330 330 333 333 335 334 334 330 330 332 334 335 335 337 336 334 333
322 321 320 322 322 323 324 326 326 327 329 329 329 331 334 330 329 332 330 333 328 325 331 334 337 333 335 329 336 336 332 338 339 337 339 338 338 338 339 341 341 341 343 341 340 337 335 337 337 334 334 331 328 326 326 325 326 326 327 328 330 329 330 332 332 333 333 332 331 330 330 331 331 341 335 331 330 329 333 334 335 334 335 336 334
322 321 322 322 322 322 325 327 328 329 331 331 332 330 331 332 330 328 332 327 329 329 328 331 328 335 334 330 334 336 339 336 334 335 338 337 336 336 338 339 338 339 340 341 340 340 339 339 338 337 333 331 328 328 331 331 328 325 325 325 328 329 328 331 332 332 331 331 330 329 328 329 329 330 329 331 330 330 330 332 334 333 334 333 336
322 322 322 323 322 324 327 328 329 329 330 331 332 333 331 329 329 328 326 329 326 330 335 326 329 336 329 333 332 336 337 333 335 336 335 335 336 337 335 335 337 338 338 338 338 339 339 340 339 339 340 338 337 336 334 333 331 330 325 325 326 327 328 329 332 330 329 329 330 331 329 329 329 329 329 328 329 331 329 329 331 332 332 333 334
324 323 324 323 322 326 328 328 329 329 330 331 327 325 325 321 322 324 321 326 322 326 330 328 328 326 330 333 334 339 330 333 333 335 338 332 334 333 334 333 334 332 336 335 336 336 336 337 337 338 336 337 337 336 336 333 331 330 327 326 325 325 326 327 328 329 329 329 330 332 329 326 328 328 329 328 327 329 329 329 331 331 332 332 333
326 325 323 324 325 325 325 325 328 328 326 324 325 322 322 320 322 324 325 323 318 325 327 327 328 326 328 326 330 329 332 332 332 333 331 330 332 331 331 330 331 330 331 334 335 335 335 335 338 338 336 334 336 338 337 334 329 326 330 327 329 328 326 327 326 326 326 328 329 329 329 327 326 327 327 328 328 328 330 329 329 331 330 330 330
324 326 325 325 326 327 326 327 327 327 332 328 324 330 323 324 325 321 323 318 317 322 321 324 327 328 330 330 332 333 331 331 334 334 335 332 331 332 332 331 329 329 330 329 331 333 333 333 335 332 336 335 333 336 338 334 327 325 323 322 324 328 329 328 325 325 325 326 328 328 328 327 325 326 328 329 328 328 328 331 331 331 330 330 329
325 325 326 326 327 325 327 328 326 327 330 327 327 323 325 327 326 325 323 322 323 329 324 325 328 324 330 330 327 325 325 324 327 330 330 330 330 330 331 332 332 332 330 329 328 329 331 331 333 331 332 333 333 336 335 334 329 329 326 322 318 317 322 324 327 325 325 325 326 327 327 326 326 325 328 328 327 327 328 328 331 332 331 330 328
324 325 325 325 325 325 327 328 326 326 324 327 326 325 326 328 331 331 327 328 323 327 329 327 327 326 327 327 324 328 327 325 324 322 325 327 332 333 331 331 330 332 333 330 330 329 330 331 332 331 331 328 330 331 335 335 332 331 322 320 319 319 314 317 320 324 326 326 326 326 326 326 325 325 324 325 326 327 327 327 328 329 329 330 329
324 323 325 325 325 325 326 327 326 326 323 326 323 325 325 328 328 328 329 328 328 325 323 321 324 324 326 325 325 324 325 326 324 323 323 325 326 326 326 329 330 331 329 329 330 330 331 332 332 331 330 327 326 329 332 333 332 332 327 324 319 315 315 319 320 321 325 324 325 326 325 325 324 324 324 324 326 327 327 327 327 328 331 330 330
324 324 325 325 325 325 326 327 325 326 322 323 325 324 324 327 324 324 321 321 320 319 319 319 322 322 321 327 327 325 325 326 326 325 322 323 327 327 328 326 326 328 329 329 329 330 329 327 330 332 331 331 328 328 329 335 333 333 332 328 326 321 322 323 321 316 324 325 325 325 325 326 325 324 324 324 325 325 327 327 328 329 331 329 330
323 327 326 326 326 325 326 327 325 325 321 322 324 325 325 324 324 323 323 326 322 319 324 325 327 325 324 326 326 328 323 324 325 326 326 325 324 327 326 327 324 326 326 326 326 327 329 330 329 331 332 331 331 327 327 329 332 331 330 328 327 327 326 322 317 319 317 322 324 324 324 325 325 324 324 324 325 325 326 326 326 328 328 330 329
323 325 326 326 325 325 326 326 325 324 322 323 322 325 322 323 322 323 323 322 323 319 322 323 326 326 325 325 326 328 327 325 325 323 325 326 325 324 325 326 325 322 323 322 323 325 328 330 332 332 333 332 331 329 328 329 326 325 328 328 329 329 328 326 324 319 317 318 319 325 326 325 324 325 325 325 324 324 327 326 326 326 326 328 328
323 323 325 326 326 326 326 327 326 324 323 322 321 322 324 322 322 321 321 321 321 321 320 320 322 322 323 324 325 323 324 325 325 324 324 325 325 324 324 322 322 323 321 321 322 323 324 324 328 331 331 331 331 331 329 328 328 326 326 326 327 327 327 327 326 323 317 317 319 320 321 325 326 327 326 326 326 327 328 327 326 324 325 326 326
323 325 326 327 327 326 326 326 325 323 323 321 321 322 324 322 321 321 320 320 319 320 321 319 322 321 322 322 324 322 325 323 324 324 324 323 323 324 323 323 322 321 323 320 321 321 321 322 323 325 328 331 331 330 329 329 329 328 327 327 325 326 325 325 324 323 319 319 317 318 323 321 321 323 327 326 326 326 327 327 326 324 323 326 326
324 323 325 326 328 326 326 325 325 323 322 321 321 319 323 320 320 321 320 320 320 320 321 317 321 320 320 320 322 323 326 327 326 323 322 323 322 323 322 322 322 322 321 320 320 320 321 323 324 325 325 326 327 330 329 329 330 329 329 328 327 327 324 322 321 321 320 321 320 319 321 321 321 322 325 327 325 326 326 325 326 323 323 324 324
Wind_Speed
6 11 8 9 9 9 10 11 11 10 11 9 9 9 10 12 12 12 12 12 11 11 10 10 12 12 11 12 12 12 11 11 11 10 9 10 11 10 10 11 13 13 13 15 15 15 14 14 14 14 14 16 16 17 17 17 18 19 18 16 15 18 18 18 20 19 18 17 17 16 15 14 14 15 16 16 13 11 13 16 14 11 7 11 15
9 10 8 8 10 10 10 11 11 11 11 9 9 9 10 11 11 12 12 12 11 11 11 10 11 12 12 11 12 12 11 11 10 9 8 9 10 10 9 11 12 13 13 14 15 15 14 14 14 14 14 15 16 17 17 17 18 18 18 15 15 16 18 18 18 17 16 16 15 16 16 15 14 13 15 16 17 19 19 17 17 10 7 14 15
9 11 8 9 11 9 9 11 10 10 10 10 9 10 10 10 10 11 11 10 10 11 11 11 11 11 12 11 11 12 11 10 10 9 8 9 11 10 10 11 11 13 14 14 14 14 14 14 14 14 14 14 16 17 17 17 17 18 17 15 13 15 15 17 18 18 16 17 16 16 18 17 15 14 15 15 17 19 18 17 16 14 9 15 14
10 8 8 9 11 8 9 11 10 10 10 9 10 10 10 10 10 10 10 10 10 9 10 10 12 11 11 11 10 11 11 10 10 9 9 9 10 12 11 12 12 12 14 14 13 13 14 14 13 14 14 14 15 17 17 17 17 17 16 14 13 12 12 12 14 15 15 18 17 14 8 8 10 15 16 16 16 17 16 15 15 15 15 14 15
10 9 8 8 8 9 9 10 10 10 10 10 9 10 11 10 10 11 10 10 11 9 9 9 11 11 10 10 10 11 11 10 9 10 9 9 10 11 11 10 13 13 13 13 13 12 13 13 13 13 14 13 15 16 17 16 17 15 15 13 10 9 11 13 13 13 14 16 15 12 9 8 7 14 15 16 16 15 14 15 14 14 14 15 15
9 8 7 8 8 7 8 10 9 11 10 10 11 10 11 11 11 11 11 9 9 10 9 9 10 11 10 10 10 11 11 11 9 9 10 9 8 8 10 10 9 14 14 14 13 12 12 12 12 12 13 14 15 16 16 16 16 15 13 10 7 6 7 9 9 10 11 11 5 1 9 9 8 8 15 15 15 15 15 15 14 13 13 15 15
8 6 7 7 6 7 9 10 10 10 10 10 10 11 11 11 11 11 11 12 11 9 10 9 9 10 12 10 10 12 12 11 10 9 9 9 9 8 10 10 9 10 13 13 13 12 12 11 12 12 13 15 15 16 15 16 15 13 11 9 5 3 4 7 10 9 8 6 3 3 8 10 7 7 14 13 13 13 13 13 12 13 14 14 14
6 6 7 8 7 8 9 10 10 10 10 11 10 11 12 12 13 12 12 12 12 11 10 10 10 11 11 12 9 11 12 11 10 9 8 8 9 9 9 9 10 10 11 12 12 11 11 11 11 12 13 15 16 16 14 15 14 11 9 7 5 3 4 6 6 7 8 4 5 7 7 9 8 8 12 13 12 13 14 13 12 12 13 14 14
10 10 8 9 8 9 9 10 9 10 10 12 11 11 12 12 12 14 14 13 12 11 10 11 11 12 11 11 10 10 11 12 10 10 9 8 8 8 8 8 8 8 8 9 9 8 9 10 10 12 14 16 17 16 15 14 13 10 8 6 5 4 3 4 6 8 5 7 6 8 10 9 8 8 11 12 12 11 13 11 12 16 16 15 14
11 9 10 7 7 10 10 12 11 9 9 11 11 12 13 14 12 12 13 13 11 10 10 11 12 12 12 11 12 10 10 11 9 9 10 9 8 7 7 7 6 7 8 7 8 7 8 9 10 13 15 16 16 15 14 13 11 9 6 6 6 6 5 7 10 5 2 7 9 9 9 13 9 8 9 12 13 15 16 16 11 11 11 14 14
12 10 9 7 8 10 10 10 9 9 9 10 9 11 13 15 14 13 13 12 11 10 10 11 13 12 13 13 11 11 10 10 11 11 10 10 9 8 8 7 7 7 8 8 10 10 9 10 12 14 14 16 15 14 13 12 11 8 6 5 4 2 3 6 8 5 6 9 9 10 14 17 8 6 11 13 14 15 15 14 13 14 14 14 13
10 10 9 7 9 9 9 9 7 7 9 8 7 9 12 14 15 14 13 13 12 11 11 11 12 11 13 13 11 12 11 11 12 12 11 10 9 8 8 8 7 8 10 11 12 11 11 11 13 14 15 15 15 14 13 11 9 8 5 2 3 3 4 7 5 6 9 7 9 11 11 11 8 9 12 13 13 14 13 12 13 13 13 12 13
9 9 9 6 5 8 9 8 7 7 7 8 8 6 8 11 12 12 12 12 12 11 12 12 11 10 12 12 11 11 10 10 11 12 11 10 9 9 8 8 10 10 11 12 12 12 11 12 13 14 14 14 14 13 12 10 8 7 4 3 2 4 6 8 6 7 5 5 11 13 12 8 7 12 12 13 13 13 13 12 12 13 13 13 14
9 8 7 5 4 7 8 8 7 9 10 11 12 13 7 5 9 10 10 11 11 11 11 11 11 10 10 11 10 10 9 9 10 12 11 10 10 9 8 9 10 11 12 12 12 12 11 12 13 14 13 13 13 12 11 9 7 6 3 1 3 6 7 7 6 6 4 5 10 14 11 7 7 12 12 12 12 12 13 12 13 13 14 13 13
10 9 7 6 5 5 8 7 8 11 12 12 12 11 10 6 7 7 9 10 10 10 11 11 10 10 9 10 10 10 9 9 10 11 11 10 10 9 9 10 10 11 11 12 11 11 11 11 12 11 10 11 11 11 10 8 6 4 3 2 2 5 9 6 6 1 6 6 10 13 11 8 11 13 13 12 12 12 12 13 12 13 12 12 13
12 10 8 5 6 5 3 7 8 10 9 9 9 9 9 6 7 7 8 9 10 10 10 10 10 9 9 9 9 9 9 9 10 10 10 10 10 10 10 10 10 11 11 11 11 10 10 10 10 10 10 10 11 10 10 8 5 2 2 1 3 6 9 7 6 1 5 8 11 10 10 8 14 14 12 12 11 11 11 12 12 12 12 12 12
11 11 10 8 6 4 3 4 6 8 9 8 8 9 9 6 6 6 7 8 9 9 10 10 9 9 9 9 9 8 8 9 10 10 10 10 10 10 9 10 11 12 11 11 11 10 10 11 11 11 11 10 10 9 9 7 5 2 1 2 3 7 8 7 6 2 2 7 10 9 8 8 12 12 12 11 11 12 11 11 12 11 11 11 11
12 11 10 8 7 6 4 4 5 3 5 7 7 9 8 6 6 5 7 7 8 9 9 9 8 9 9 9 9 8 8 8 9 9 9 8 9 9 9 10 11 12 11 11 11 10 11 11 12 11 10 10 10 9 8 7 6 3 1 4 5 8 8 9 5 4 4 12 10 9 7 10 14 12 12 11 11 12 11 11 10 10 10 10 11
12 12 10 9 8 6 5 4 3 4 5 4 4 6 7 5 5 5 6 7 7 8 8 8 9 9 10 9 9 9 8 9 9 9 8 9 10 10 9 9 11 12 12 11 10 10 11 11 12 11 10 9 9 9 8 7 6 4 2 5 8 6 9 6 5 2 4 9 7 7 7 12 13 14 12 11 11 12 10 10 9 10 9 10 10
7 10 9 9 7 7 6 3 3 4 4 5 5 6 6 5 7 7 5 6 7 8 8 8 9 9 10 9 9 7 7 7 10 9 9 9 10 8 9 9 11 12 12 12 11 10 11 11 10 10 10 10 10 9 9 8 7 6 5 5 7 8 4 4 6 3 6 8 9 7 9 11 13 13 11 11 11 11 10 9 10 9 9 10 10
4 5 7 6 9 8 7 4 3 5 5 4 5 5 5 7 4 6 6 5 6 7 8 8 7 7 8 8 8 6 5 5 7 6 10 7 8 10 9 9 11 12 12 12 11 10 10 10 9 9 10 10 8 8 8 7 7 7 6 6 5 4 5 6 2 3 10 8 8 7 12 11 11 12 12 11 12 10 9 10 9 9 9 9 9
4 3 5 6 8 8 7 6 2 3 4 3 3 5 4 4 4 5 5 5 4 5 6 6 6 5 7 6 5 5 5 4 5 8 6 7 7 10 10 9 11 12 12 11 11 9 8 8 6 7 8 9 11 5 4 5 6 6 6 6 2 4 5 5 1 2 11 7 8 8 12 12 12 11 12 11 11 9 8 11 11 9 9 9 9
5 3 3 3 4 2 9 8 6 4 4 5 3 5 6 4 4 3 3 5 6 6 5 5 5 5 7 6 4 3 4 4 4 7 6 7 8 10 10 10 10 12 12 10 10 10 7 4 4 5 9 10 7 5 5 5 3 6 6 3 3 4 6 1 1 2 9 8 7 12 11 12 11 12 12 12 10 10 9 10 9 9 8 8 8
6 4 3 3 3 3 6 6 7 7 4 2 3 3 4 4 1 2 0 1 2 4 4 4 3 4 7 4 3 2 5 4 5 2 7 3 4 8 11 11 10 11 13 9 9 9 10 6 6 5 4 5 5 5 6 6 6 4 4 4 5 5 5 2 4 3 9 10 8 12 10 8 9 11 9 9 11 10 9 10 9 9 9 7 7
5 4 2 2 2 2 1 1 5 6 6 4 6 5 3 4 3 2 2 1 0 0 2 1 3 5 5 4 4 5 3 5 4 3 2 2 3 5 5 6 5 5 9 6 5 6 5 6 4 4 4 5 7 6 5 6 5 6 5 5 6 6 3 2 2 7 7 7 9 13 11 8 5 12 10 9 10 9 9 10 9 8 8 6 6
6 4 2 3 5 5 2 2 1 3 7 5 6 5 4 4 4 3 1 3 3 3 2 2 2 4 4 5 6 5 5 3 3 1 3 1 4 4 5 5 5 6 7 6 5 6 5 6 5 6 6 6 6 7 7 7 6 7 6 6 6 4 4 3 3 9 6 7 9 14 11 8 6 10 10 10 9 10 9 9 9 9 8 6 5
4 4 3 2 3 5 5 3 3 1 2 9 6 5 6 5 4 4 3 3 2 2 2 4 3 3 4 8 6 2 2 3 4 4 2 2 2 3 4 4 5 5 6 5 6 8 7 7 6 6 6 7 8 3 2 8 6 6 6 6 4 2 4 2 5 9 7 7 9 15 12 10 6 6 11 10 9 9 9 10 10 8 8 7 5
5 4 3 2 2 5 6 5 4 3 3 7 6 6 5 5 4 3 3 3 3 3 3 2 3 5 6 3 3 3 2 2 2 2 2 1 4 6 4 5 6 6 7 5 6 7 6 6 6 6 7 7 10 4 4 3 3 2 3 3 4 2 4 4 3 7 9 7 8 13 14 12 9 8 11 10 11 10 9 8 10 9 9 7 6
5 4 3 3 4 4 4 5 2 2 3 2 8 7 6 6 5 3 2 1 3 3 4 4 4 4 3 3 2 4 3 4 6 4 3 4 5 5 6 5 6 7 7 6 5 6 6 7 8 8 7 8 3 3 3 2 5 2 2 4 4 3 2 3 1 7 9 7 7 9 14 12 10 9 9 9 10 10 9 10 11 8 7 8 6
5 4 3 3 3 5 5 5 5 2 1 2 5 4 3 7 5 4 3 3 3 3 3 3 2 4 2 3 3 4 3 3 3 2 4 4 2 4 4 7 6 5 5 6 4 5 4 5 4 4 4 3 4 3 2 3 5 4 3 2 1 1 2 3 3 4 7 7 8 9 14 13 12 10 11 8 9 11 10 11 9 9 7 6 6
6 5 4 4 2 6 5 5 6 6 3 5 4 3 3 4 5 4 4 3 3 3 3 3 2 3 2 1 2 2 5 4 2 4 3 3 3 2 4 6 6 4 3 3 3 5 3 2 5 5 5 3 4 5 4 1 2 6 6 3 3 4 3 4 3 2 5 9 8 7 9 14 12 11 10 9 6 5 10 10 11 8 8 7 6
6 5 4 3 6 6 7 5 4 3 6 4 2 2 3 3 2 3 3 5 4 3 1 1 2 2 5 1 1 2 3 5 4 3 4 2 3 3 6 6 4 3 3 8 9 4 6 6 7 5 4 4 1 4 3 3 3 2 2 5 3 5 3 3 3 3 2 9 8 7 8 8 12 11 12 10 8 5 2 10 10 10 8 8 6
5 6 5 5 5 5 4 4 4 3 4 4 3 3 2 3 2 3 3 1 4 4 4 5 2 1 2 3 3 3 3 2 5 3 2 3 5 4 3 3 3 1 3 2 7 8 5 6 5 3 6 3 2 5 6 4 2 2 5 3 4 4 3 2 2 3 4 6 8 9 8 8 8 12 13 11 11 9 5 1 7 11 9 9 9
6 5 6 5 4 3 4 3 4 5 4 3 4 3 2 1 3 4 2 2 2 4 3 4 4 4 4 2 1 3 3 3 1 5 4 3 5 5 3 2 3 3 2 3 4 5 8 4 3 4 3 1 2 1 4 4 5 3 5 5 5 4 4 2 3 5 2 1 5 9 8 8 7 7 7 13 12 11 10 9 5 11 10 10 8
7 6 6 7 5 5 3 4 4 4 4 4 3 3 3 4 4 3 3 3 1 1 3 3 5 3 6 5 4 3 2 4 6 4 4 5 5 3 5 3 5 4 3 5 3 4 9 5 2 2 1 4 3 4 3 2 1 3 4 4 2 2 5 5 3 3 3 3 3 2 10 8 8 7 7 7 11 13 12 11 10 8 12 10 10
9 8 8 7 7 5 5 5 4 4 4 3 2 2 2 3 3 3 2 2 2 2 3 2 2 3 3 4 2 2 0 1 2 2 2 2 2 2 2 2 4 2 5 4 2 1 3 3 7 2 2 5 7 3 4 3 4 5 4 4 4 1 2 4 3 3 4 5 4 4 1 6 9 7 9 7 7 9 14 13 12 9 12 13 11
10 9 8 8 7 7 7 5 5 5 3 3 4 2 2 3 3 2 3 2 3 4 2 2 1 4 1 6 2 1 2 2 1 3 2 1 1 2 3 1 3 3 2 3 4 5 5 4 4 6 4 5 6 6 6 6 6 6 3 3 2 3 2 4 5 4 6 3 4 4 4 2 6 10 9 8 7 7 12 13 13 12 12 12 13
10 10 9 8 8 7 6 4 5 4 3 2 2 3 2 3 3 3 2 4 3 2 3 2 4 1 3 4 2 1 1 1 1 2 3 2 1 2 2 2 2 2 1 1 2 3 4 2 3 4 3 5 4 4 2 1 3 5 5 4 4 2 3 3 5 5 5 3 5 4 6 5 4 3 3 8 8 7 8 12 13 13 13 12 13
9 10 9 7 7 6 5 5 4 3 3 2 2 2 3 3 3 3 3 2 4 3 2 4 2 2 4 2 3 1 1 2 2 1 3 1 1 1 2 3 2 2 3 2 2 2 1 1 1 3 5 4 2 3 4 4 5 6 4 7 4 5 4 5 3 5 5 5 6 7 5 6 6 6 5 5 6 8 8 7 7 6 8 13 13
9 10 10 9 8 7 5 5 4 4 4 3 5 6 3 4 3 2 3 2 4 3 2 3 3 5 2 2 1 1 3 2 2 1 1 3 1 3 2 2 2 2 1 2 1 2 2 2 3 2 2 3 3 3 2 3 6 5 6 4 6 6 5 5 4 3 4 5 5 2 4 4 7 6 7 6 6 5 8 8 7 8 7 10 13
9 10 9 9 8 8 8 6 4 4 4 4 1 3 2 3 3 1 1 3 3 2 4 4 2 4 2 2 2 2 1 1 1 1 2 3 2 4 4 4 3 2 2 2 3 3 4 4 2 0 3 4 3 2 4 4 4 5 8 1 2 4 4 6 6 5 5 4 3 3 4 5 4 6 6 7 8 7 9 8 9 7 8 8 10
9 9 9 8 8 8 8 6 5 4 2 4 4 2 2 2 1 2 1 4 3 3 3 3 2 4 2 2 1 0 2 2 0 0 0 1 1 1 1 3 5 4 3 2 3 3 4 4 2 4 4 3 3 3 1 3 1 2 3 2 2 1 3 4 6 7 7 6 3 5 6 6 4 4 5 6 6 7 7 10 9 9 10 10 10
11 10 9 8 7 8 6 7 5 3 2 4 4 3 3 2 2 2 2 2 3 1 3 3 2 2 3 1 4 5 4 3 3 2 2 2 2 3 2 1 1 2 4 3 3 4 4 6 5 5 5 3 3 3 4 5 2 2 2 6 4 3 3 4 4 6 7 7 6 7 7 6 7 6 5 5 6 6 7 7 10 10 10 9 10
11 10 9 9 8 7 6 8 6 5 4 3 4 4 4 3 2 2 1 2 3 4 4 3 2 2 1 2 4 2 2 2 3 4 4 3 2 0 1 2 2 2 2 3 3 5 4 5 5 7 6 6 6 6 6 6 5 3 3 5 5 5 4 7 7 8 10 10 9 9 7 8 9 9 5 6 5 6 7 7 9 9 8 8 10
11 11 10 9 7 9 7 9 7 6 5 4 5 4 4 3 2 1 2 0 2 2 2 3 1 2 1 3 2 3 1 1 3 4 3 3 5 5 5 2 1 2 3 3 2 3 3 4 6 6 7 8 9 6 4 8 10 9 6 1 4 6 6 3 10 7 7 8 11 11 8 9 9 8 6 6 6 6 6 6 7 6 7 7 10
11 11 11 10 9 9 8 8 7 6 6 5 5 5 4 5 5 4 5 6 3 3 3 2 2 2 2 1 1 1 1 0 0 2 4 4 2 2 2 3 3 4 3 3 3 3 4 4 4 6 8 10 10 8 8 4 7 9 10 7 3 2 2 4 3 3 7 9 8 10 10 9 9 7 6 7 8 8 7 7 7 7 5 7 9
10 9 11 10 9 9 8 9 7 6 7 6 6 5 5 3 2 2 1 1 3 3 2 2 1 2 2 1 1 1 2 2 2 1 1 2 3 2 2 2 3 4 4 4 4 4 4 3 5 5 7 8 8 9 10 9 4 4 3 7 10 9 9 6 5 4 4 6 6 6 8 11 10 9 8 8 9 9 7 9 8 7 6 6 6
10 9 10 10 10 10 9 10 7 7 7 7 6 5 4 3 3 2 1 2 2 4 3 2 1 0 2 1 2 1 1 0 2 2 1 1 2 3 3 2 3 3 4 5 5 4 4 3 3 5 5 6 8 10 10 8 7 6 7 9 7 8 10 12 10 7 6 1 6 7 5 8 7 8 9 8 8 8 7 8 7 9 8 9 7
11 10 10 10 9 9 10 10 9 8 8 8 7 6 5 5 4 3 3 3 2 4 2 3 3 2 1 2 1 1 2 1 1 1 2 1 1 2 2 3 4 4 4 4 5 5 5 5 4 3 4 6 6 8 8 8 8 9 9 8 9 9 9 10 9 6 4 4 3 7 8 5 5 4 7 7 6 5 7 7 7 7 7 6 6
10 10 9 9 9 8 10 12 10 8 8 9 7 6 4 6 5 4 4 4 3 3 2 3 2 3 2 1 2 2 2 3 2 1 0 1 0 1 2 2 3 5 4 5 6 7 7 5 5 5 5 5 5 7 9 8 7 8 10 7 8 7 9 8 8 7 8 6 5 3 3 5 4 5 6 8 9 8 6 7 8 8 6 7 6
9 10 9 9 8 9 9 13 11 8 9 9 8 7 4 5 4 4 4 4 3 3 2 3 3 2 2 2 2 1 1 0 1 2 3 2 2 2 1 2 2 3 4 5 6 6 5 4 4 5 7 7 6 6 8 9 8 8 10 9 10 9 9 9 10 9 8 3 2 5 5 2 3 3 5 8 9 11 9 7 6 7 6 6 6
Wind_Direction
111 107 91 80 80 75 71 76 78 82 86 92 114 123 124 124 125 126 131 131 131 128 122 116 112 110 108 105 103 103 102 101 103 100 99 109 116 113 113 111 108 108 109 106 106 107 106 104 102 101 101 99 98 95 92 92 91 90 90 87 90 90 91 91 84 80 77 77 77 83 79 80 81 80 72 76 77 83 89 88 79 71 68 75 74
131 115 99 87 83 79 74 72 74 83 88 96 113 122 125 127 131 134 135 137 133 129 124 118 114 112 109 107 109 110 109 109 108 108 108 111 114 118 115 113 111 112 113 113 111 111 109 107 105 106 105 106 100 98 97 98 98 96 93 92 91 93 92 91 93 95 92 83 81 75 73 70 68 69 78 69 63 63 66 74 80 80 74 73 70
121 113 98 88 85 86 87 80 78 85 95 102 113 121 126 130 136 135 136 134 128 128 128 124 117 113 110 113 113 114 114 113 111 108 103 104 112 118 116 113 115 115 115 115 113 111 111 111 112 112 110 109 106 103 102 101 102 101 100 99 99 100 104 109 111 111 110 107 98 86 77 64 62 68 75 72 67 68 67 73 76 74 72 72 69
106 101 105 93 87 85 84 81 83 87 90 105 111 122 126 135 132 132 135 133 132 129 132 129 120 112 113 116 117 116 115 113 112 107 108 110 116 116 118 117 120 119 116 116 115 114 113 113 116 116 116 112 111 106 106 104 105 106 107 105 112 119 117 113 114 118 129 128 125 105 85 72 71 77 76 76 75 70 75 79 80 79 79 74 71
111 122 118 113 97 86 89 92 92 95 97 101 109 117 118 129 139 134 134 131 132 129 126 124 120 114 114 117 119 115 114 110 109 110 110 114 118 120 118 123 128 124 119 116 117 116 114 116 115 115 115 117 113 110 109 109 107 109 110 117 126 134 134 126 126 133 141 152 114 98 95 90 79 71 76 78 79 83 84 80 78 81 79 77 74
92 115 121 107 100 87 90 97 95 98 102 105 110 116 117 125 139 135 129 129 126 129 126 128 126 119 118 117 119 117 117 115 115 116 116 112 114 118 121 120 122 126 122 118 117 118 117 116 117 117 119 118 115 111 113 112 112 113 118 128 142 142 129 118 121 134 166 183 232 99 96 85 78 73 76 82 80 80 82 84 85 86 83 75 69
110 114 109 111 106 89 80 87 91 96 105 113 114 122 120 116 121 128 125 125 128 130 139 133 128 121 122 120 121 120 121 119 121 122 120 118 115 117 121 121 129 124 123 122 121 121 122 121 120 119 120 119 116 113 116 115 117 118 121 131 135 141 127 128 134 171 178 203 256 126 92 98 90 78 81 82 83 83 82 76 76 76 78 77 71
122 114 105 113 109 104 97 101 112 105 111 124 126 126 127 125 129 129 128 132 135 144 145 138 133 125 126 129 125 123 124 121 121 115 116 123 118 117 118 127 128 125 123 122 122 124 125 125 123 121 122 118 115 116 117 117 116 122 127 133 143 186 187 166 172 173 194 202 239 97 100 94 86 86 80 82 83 85 84 82 79 82 83 78 74
113 114 114 118 109 96 92 87 92 111 118 129 137 133 132 136 138 131 134 139 145 146 149 138 135 128 119 118 124 127 126 124 123 119 117 122 118 118 128 131 129 132 118 121 121 124 126 125 122 123 123 119 116 118 117 116 118 124 133 153 173 201 244 207 196 191 211 226 108 103 99 99 100 96 86 78 79 91 93 92 81 67 73 73 71
110 107 118 118 117 95 82 76 73 86 108 131 137 140 138 139 144 138 136 142 144 146 150 138 134 126 123 125 125 129 128 124 121 123 125 118 110 119 120 112 110 117 120 113 119 116 119 120 121 122 123 119 119 118 119 119 121 127 145 171 197 208 259 320 332 300 326 71 77 82 100 91 89 87 82 80 75 74 71 68 69 83 74 72 74
112 118 115 108 103 81 76 80 91 99 93 115 141 140 142 143 146 146 139 139 140 143 143 137 128 126 124 126 126 126 126 121 121 124 123 122 120 114 112 110 109 110 108 106 105 106 109 110 118 123 122 122 121 123 120 123 127 141 159 203 227 300 325 308 304 289 107 93 93 98 91 92 85 81 88 86 80 80 81 79 79 75 76 76 76
107 119 119 116 114 88 82 80 80 75 87 90 112 139 143 145 150 147 141 138 143 143 140 133 129 129 128 125 123 121 124 123 119 119 114 118 121 119 116 116 109 106 104 105 107 111 113 121 123 127 124 126 125 124 124 127 133 148 170 197 252 322 306 316 308 293 81 99 77 76 93 95 99 97 90 89 88 81 86 92 82 80 83 83 81
106 121 122 117 112 112 103 90 77 75 75 82 73 102 126 140 143 144 139 139 142 142 142 134 131 130 129 127 124 118 114 113 113 113 112 111 116 115 111 108 109 111 108 107 114 116 120 121 126 128 130 130 126 126 128 132 141 150 171 192 320 300 324 330 307 300 117 113 109 97 88 90 98 101 95 96 96 92 82 86 90 85 80 77 78
118 121 124 109 100 105 102 90 71 62 51 47 42 38 38 115 128 136 134 134 137 140 137 136 132 132 129 126 121 108 109 111 114 115 113 108 109 106 107 110 115 115 112 110 114 118 123 127 130 132 134 130 129 130 130 134 143 152 158 24 340 320 327 310 296 265 117 157 106 108 104 99 99 101 99 98 95 97 96 89 87 84 81 78 78
110 115 126 122 113 99 97 79 74 65 63 59 52 48 52 71 88 115 125 124 128 129 132 133 133 131 127 126 121 115 113 116 115 113 112 107 107 108 107 114 117 119 113 114 116 124 127 133 134 130 128 133 128 130 131 134 147 157 133 47 341 326 310 309 314 254 101 82 99 100 103 110 114 102 102 100 97 96 98 91 87 86 84 82 79
106 111 113 122 116 124 134 103 76 73 76 87 75 55 50 87 99 107 112 118 124 128 130 131 130 130 127 123 120 117 115 115 111 110 109 112 113 114 115 122 131 123 118 116 119 124 131 129 129 127 134 130 129 131 131 138 146 156 105 24 335 315 301 311 312 330 94 95 102 106 108 112 108 109 108 106 106 100 98 96 93 94 91 85 83
110 108 109 123 131 120 116 137 96 96 88 76 74 62 43 53 89 105 115 120 120 128 131 132 129 125 121 118 120 121 119 114 115 115 118 120 119 117 118 126 135 128 124 122 126 131 131 134 134 138 135 128 129 128 129 134 138 86 36 333 308 294 301 320 325 270 133 108 106 112 112 111 114 113 115 111 109 106 103 100 97 93 93 91 91
109 106 111 114 122 137 136 125 121 154 113 104 83 62 50 52 93 99 112 115 125 125 129 126 126 122 122 125 125 123 121 120 122 119 118 122 123 123 123 126 132 131 126 126 128 134 139 139 138 142 135 131 130 129 128 133 125 129 324 295 291 292 311 334 331 28 33 75 98 102 114 113 120 118 114 114 113 105 102 101 100 100 103 105 94
113 109 108 108 111 108 123 128 134 140 116 118 113 91 65 68 104 109 114 123 120 124 127 131 128 129 130 132 135 134 132 132 128 122 128 134 135 128 126 125 132 134 129 125 129 138 143 143 142 140 139 133 136 136 141 141 139 144 227 281 288 303 324 323 316 164 100 95 91 108 113 128 123 121 121 121 116 109 110 109 105 100 99 96 88
96 117 110 116 109 110 112 116 128 123 127 138 134 128 106 80 134 123 116 121 127 128 130 137 135 135 139 140 139 144 142 148 138 136 142 146 140 137 132 128 133 138 131 129 135 145 148 150 148 144 144 148 150 153 156 159 155 160 184 255 286 310 315 291 279 133 111 107 109 109 117 117 126 122 127 121 117 113 115 114 110 114 107 96 93
55 73 128 117 112 116 105 100 126 127 136 130 126 110 122 125 118 105 120 122 128 134 140 139 137 137 141 142 148 158 166 156 153 154 152 157 148 137 139 136 132 139 138 136 137 147 153 153 154 159 159 160 154 159 164 165 164 167 190 222 259 298 285 279 284 8 95 99 106 111 112 109 116 122 120 125 121 123 130 118 110 110 104 96 97
94 74 26 99 128 125 123 119 100 114 118 142 148 136 134 152 158 154 151 138 136 141 152 161 161 155 156 153 166 180 171 157 185 172 165 166 147 144 141 143 135 141 146 146 140 141 149 151 159 170 164 165 164 162 170 171 168 178 199 223 239 252 263 256 16 317 97 100 104 124 122 127 128 132 130 128 123 124 134 110 107 101 99 97 98
108 84 80 59 6 60 134 133 110 96 118 134 124 141 156 154 179 170 166 170 172 175 177 185 181 177 177 173 190 173 181 174 201 173 184 165 149 151 147 148 144 147 150 153 148 137 131 140 161 185 185 179 171 185 172 167 174 196 213 224 238 238 255 199 234 65 112 115 119 132 130 132 133 132 143 135 133 128 134 118 119 115 110 108 107
102 79 60 36 45 30 30 54 112 103 76 105 141 113 138 129 127 77 240 153 191 188 187 195 191 198 191 173 190 56 68 87 12 253 215 115 142 154 152 149 152 152 154 157 156 147 143 157 195 208 211 204 206 209 177 163 168 170 209 219 229 237 219 155 241 110 110 121 127 126 112 107 131 135 142 139 138 138 136 125 126 120 112 114 108
98 109 103 77 77 34 63 92 95 120 115 86 75 64 72 73 76 83 26 343 87 28 293 240 186 204 195 177 86 70 65 40 91 293 331 132 168 167 159 155 160 163 157 164 164 163 165 187 198 206 231 219 225 219 184 149 170 168 196 215 230 245 143 139 260 94 117 124 133 129 122 111 100 143 143 143 144 145 144 130 127 125 119 109 106
107 92 90 153 165 147 97 33 93 109 126 118 117 110 82 70 68 54 61 40 11 347 327 342 9 33 356 78 84 61 50 67 31 125 246 306 200 197 177 168 181 174 182 165 178 157 188 200 199 201 220 236 227 236 149 147 169 177 191 209 225 222 127 184 200 105 115 128 135 131 129 116 100 151 153 150 155 151 148 144 134 130 123 119 118
98 102 102 48 21 86 129 137 57 44 326 128 127 119 112 81 52 44 51 45 2 353 7 336 336 27 48 78 102 122 145 167 174 248 221 209 253 224 197 184 190 188 193 188 179 168 193 187 201 202 214 229 244 184 164 160 170 186 181 196 226 204 158 221 143 114 127 135 142 140 140 125 115 160 154 161 157 155 156 150 139 134 133 132 126
101 112 111 90 68 69 56 50 39 349 9 112 99 122 115 117 98 70 44 27 30 15 20 9 343 31 52 54 117 139 119 76 204 219 271 206 239 219 236 203 195 194 198 217 183 176 199 185 203 213 215 224 230 159 205 158 154 167 184 176 173 265 134 247 152 128 131 141 151 149 147 142 143 153 165 166 164 164 166 156 140 140 144 146 143
95 93 90 82 78 64 50 59 73 338 44 330 138 125 118 117 127 124 102 60 59 26 359 359 43 56 118 197 138 107 131 173 194 190 219 191 213 226 246 268 223 194 197 221 190 177 206 180 199 218 212 214 162 192 142 202 149 202 236 180 184 183 169 216 259 130 134 143 148 150 148 150 149 154 167 180 169 172 174 160 160 162 149 163 160
101 95 90 89 98 96 96 83 26 19 116 335 32 36 103 132 117 112 136 106 72 35 17 7 22 124 165 244 133 137 151 190 193 151 223 227 194 192 240 264 265 228 193 206 184 180 224 186 241 245 231 220 167 182 166 172 167 168 230 257 128 255 182 154 257 169 133 143 144 154 155 156 156 163 165 173 188 178 182 173 176 166 172 174 175
129 122 113 116 130 116 89 91 69 356 337 77 20 73 58 16 112 140 143 118 113 70 26 340 350 53 74 94 151 156 154 205 180 162 239 221 230 164 225 257 287 288 344 296 210 174 214 196 229 238 257 234 191 144 168 331 284 166 176 214 175 179 242 160 221 244 154 136 145 156 163 159 164 163 162 163 181 213 185 196 179 173 183 182 189
119 116 102 71 53 64 78 71 71 25 355 92 109 47 27 104 8 111 96 117 145 141 138 224 0 43 95 36 281 160 189 174 188 196 192 212 241 243 205 208 270 354 37 333 331 276 186 211 216 232 259 255 190 120 136 180 259 305 192 179 196 163 219 168 180 250 187 136 147 160 158 166 166 162 161 161 159 150 246 197 190 186 187 186 198
103 97 97 92 90 89 80 81 53 46 53 25 49 72 321 65 99 71 79 146 165 151 173 124 55 57 85 132 237 201 163 207 177 190 214 195 238 228 212 164 143 56 125 263 285 304 280 209 232 233 223 236 186 151 172 150 74 318 302 208 189 188 191 171 181 265 216 152 158 152 160 170 171 166 166 164 162 169 178 215 199 187 192 197 193
124 124 124 117 107 91 111 94 96 81 64 45 31 49 354 147 83 80 63 307 63 141 113 112 157 183 146 113 335 295 195 160 287 156 195 250 222 219 237 169 134 179 160 243 228 259 275 247 222 225 255 235 247 209 132 133 157 213 240 270 179 184 152 170 206 224 256 250 159 154 164 167 170 172 173 169 174 174 179 174 195 190 192 199 199
126 133 131 128 131 124 109 104 102 80 74 57 37 76 29 39 49 53 58 296 166 82 86 153 171 159 131 158 222 235 287 137 170 178 167 176 252 230 204 189 153 155 183 216 183 191 252 287 223 250 310 309 264 208 171 142 158 235 220 212 315 139 148 184 206 225 221 207 271 187 160 163 167 171 175 178 178 180 178 181 174 208 195 194 202
135 136 136 142 135 131 123 118 112 107 105 99 94 80 71 75 81 70 93 349 15 61 82 11 358 125 142 140 110 331 18 247 127 114 163 185 225 245 222 182 128 190 196 212 225 207 352 327 289 232 168 254 262 204 157 173 179 228 228 164 247 303 181 180 191 231 240 182 203 248 200 149 158 175 175 174 179 184 184 178 182 181 182 186 195
136 142 147 146 142 135 139 145 130 129 126 134 141 140 162 115 101 108 125 73 29 13 67 198 132 77 36 83 101 39 322 357 83 113 81 60 26 337 281 268 162 192 220 178 179 201 172 232 238 256 195 238 246 259 173 196 182 204 229 150 191 248 249 185 189 209 249 187 173 192 226 200 160 171 171 176 169 183 186 184 177 182 177 189 190
143 148 153 153 148 147 147 138 147 130 142 141 156 146 178 148 141 126 72 119 101 71 309 8 55 40 54 77 53 19 343 70 106 102 102 82 230 274 355 346 268 234 241 190 197 196 178 207 259 247 219 226 253 265 281 170 214 205 180 167 157 262 264 245 197 197 229 213 197 209 192 192 193 208 160 151 175 167 179 189 186 183 184 183 185
150 153 155 153 149 153 147 146 141 147 152 180 195 151 188 128 103 89 86 71 105 103 333 60 345 65 73 66 73 297 60 24 32 108 130 140 179 191 93 302 345 190 202 241 220 219 213 184 223 291 346 322 335 339 336 327 309 305 236 164 173 186 243 273 246 202 208 231 208 200 219 193 189 178 171 168 158 161 168 180 179 183 193 182 191
154 156 164 157 160 149 139 156 155 166 178 207 198 195 159 75 73 46 90 47 88 117 90 69 6 59 32 53 49 96 48 7 9 347 166 154 175 130 147 231 286 326 307 260 263 289 262 235 220 233 280 295 318 317 339 342 319 300 285 164 173 174 189 232 265 259 213 223 229 198 221 213 175 175 177 166 174 156 168 167 185 181 186 191 186
162 159 171 167 158 154 154 167 162 174 190 207 65 53 76 117 105 119 125 93 64 42 106 84 49 84 12 35 336 56 86 89 309 27 0 326 151 196 156 170 201 246 292 283 294 271 251 278 313 183 220 233 253 333 335 7 359 330 305 250 140 163 196 192 220 250 261 243 203 216 248 252 197 180 174 173 171 178 156 173 177 187 190 176 189
170 169 173 174 156 163 163 154 154 199 217 83 99 89 52 47 61 53 3 78 58 40 69 86 153 129 150 140 218 143 32 348 242 141 308 194 286 356 240 175 158 181 199 249 248 253 270 266 253 279 257 237 231 173 212 63 318 238 289 327 293 252 217 202 208 217 230 246 213 206 235 238 228 206 179 166 171 173 173 170 178 189 203 177 186
169 171 173 176 167 165 164 148 164 161 138 127 145 116 90 39 51 84 360 104 107 51 91 138 73 89 148 157 85 39 12 336 313 285 191 216 208 217 206 253 219 183 163 200 224 233 228 244 240 246 267 259 254 191 180 163 231 327 310 322 267 238 254 246 227 228 219 232 220 219 215 224 236 223 186 175 181 183 193 183 177 195 205 169 181
168 170 174 176 175 168 174 151 162 159 152 186 117 125 121 113 112 114 71 0 127 176 161 113 106 107 98 105 87 49 16 306 328 340 334 331 307 356 63 28 336 313 224 199 199 209 215 225 216 232 246 265 251 239 185 181 188 175 239 206 242 199 216 208 221 226 223 215 221 221 211 219 226 226 198 194 196 188 195 191 200 199 199 163 171
169 172 174 179 175 175 171 154 161 156 160 134 126 122 130 154 141 166 143 12 224 104 78 92 107 106 96 69 91 117 256 8 356 328 316 326 18 7 350 339 310 300 323 304 250 228 218 211 216 211 210 230 253 256 205 191 209 206 219 246 265 249 232 219 197 232 210 222 222 218 208 213 223 215 202 201 201 200 190 197 198 203 187 173 163
174 175 172 178 172 171 171 151 159 155 151 156 155 158 168 179 177 177 196 189 160 115 89 88 75 69 52 96 172 113 108 57 6 301 333 338 357 342 324 334 325 311 268 267 294 273 219 224 220 206 213 212 226 237 241 218 208 198 205 219 222 243 352 347 1 224 192 218 224 220 214 214 222 209 205 203 206 206 190 199 196 197 187 184 171
180 172 169 174 176 169 169 152 162 158 150 168 169 187 179 181 196 194 89 37 109 96 107 122 117 120 132 97 19 155 202 169 182 69 307 311 312 330 323 308 301 303 298 289 278 276 277 237 210 206 209 214 217 231 233 235 229 262 284 244 245 248 252 260 267 294 227 217 227 220 223 216 213 213 216 215 204 206 192 195 189 195 196 182 186
178 172 166 168 179 170 162 157 164 160 158 166 181 186 168 163 174 166 162 188 111 126 158 126 98 283 87 151 156 215 351 226 115 188 153 285 310 324 321 296 289 282 295 295 284 283 287 284 252 226 207 210 213 222 232 230 227 235 223 248 257 263 270 268 255 252 283 216 214 246 240 226 212 203 212 221 214 214 182 180 190 199 196 187 178
175 175 167 169 174 171 159 161 166 161 160 166 179 189 178 155 163 178 201 127 119 146 172 160 161 106 176 138 340 4 139 309 319 110 161 230 218 298 326 331 303 296 293 284 280 279 268 272 286 264 238 229 220 219 225 224 220 224 222 227 242 242 246 252 274 276 252 269 237 205 224 229 226 209 206 216 229 228 177 184 201 208 160 172 171
169 168 164 163 171 172 160 165 172 161 162 167 181 186 179 153 175 182 182 146 178 167 190 131 149 161 180 150 177 213 205 165 168 250 5 169 244 210 256 278 311 306 307 301 303 298 297 301 302 299 287 256 242 242 226 227 218 219 223 222 228 230 236 247 246 252 264 248 248 272 207 202 220 227 198 206 214 235 202 190 198 203 166 162 169
162 164 164 166 172 175 165 168 176 161 164 169 175 182 170 163 180 172 174 165 178 160 174 135 185 162 194 161 185 205 42 17 116 173 201 225 179 225 235 266 273 282 287 289 289 296 300 299 285 273 272 264 249 232 241 236 223 228 227 224 229 222 222 227 229 225 231 217 233 247 261 214 201 230 229 209 211 221 213 196 182 186 169 169 186